Terminal Aerodrome Forecast
Issued by NWS St Louis, MO

Home | Current Version | Previous Version | Graphics & Text | Print | Product List | Glossary On
Versions: 1 2 3 4 5 6 7 8 9 10 11 12 13 14 15 16 17 18 19 20 21 22 23 24 25 26 27 28 29 30 31 32 33 34 35 36 37 38 39
000
FTUS43 KLSX 010500
TAFSTL
TAF
KSTL 010520Z 0106/0212 18010KT P6SM SCT070 BKN250
     FM011200 20011KT P6SM VCTS BKN025CB
      TEMPO 0112/0115 4SM -SHRA BR OVC015
     FM011500 21013KT P6SM BKN030
     FM012100 22014KT P6SM VCTS BKN040CB
     FM020100 22007KT P6SM VCTS BKN050CB
     FM020600 23007KT P6SM SCT050 BKN100=

USA.gov is the U.S. government's official web portal to all federal, state and local government web resources and services.